Content
SEND FEEDBACK

Daily
Averages
Monthly
Summary
Canada

MONTREAL, QUEBEC


Home > North America > Canada > Quebec
Elevation: 118 feet     Latitude: 45 28N     Longitude: 073 45W

WEATHER
 
SELECT A DAY
Number of Records: 198,461;   Date Range: 1/1/95 - 8/20/14
 
SHARE

PRINT THIS DATA

[ ← Previous Day ]
WEATHER ALMANAC - APRIL 7, 2013
[ Next Day → ]
[ °C ]   °F
Weather ElementAverageHighLow
Temperature43.7 °F55.4 °F (6:00 pm)32 °F (1:00 am)
Dewpoint27.8 °F41 °F (8:00 pm)12 °F (2:00 am)
Humidity53.3 %76 % (8:00 pm)27 % (2:00 pm)
Barometer29.87 in30.22 in (1:00 am)29.65 in (6:38 pm)
Wind Speed15.7 mph21.9 mph (1:00 pm)
Wind Gust34.5 mph (9:00 pm)
Weather ElementAverage
Visibility19.5 mi
Wind DirectionS (175.9 °)

Weather ElementTotal
Precipitation---
Heating Degree Days21.3 (Base 65)
Averaged from 34 records on April 7, 2013
WEATHER CONDITIONS BREAKOUT
WIND DIRECTION BREAKOUT
WEATHER BY HOUR - APRIL 7, 2013
[ °C ]   °F
Local TimeTemperatureDewpointHumidityBarometerVisibilityWind DirectionWind SpeedGust SpeedPrecipitationEventsConditions
1:00 AM32.0 °F12.2 °F44 %30.22 in15.0 miESE (110°)9.2 mphOvercast
2:00 AM33.0 °F12.0 °F28 %30.17 in15.0 miESE (110°)11.5 mphOvercast
2:00 AM33.8 °F12.2 °F41 %30.17 in15.0 miESE (110°)12.7 mphOvercast
3:00 AM33.8 °F12.2 °F41 %30.13 in15.0 miESE (110°)9.2 mphOvercast
4:00 AM33.8 °F12.2 °F41 %30.09 in15.0 miSE (130°)12.7 mphOvercast
5:00 AM33.8 °F15.8 °F48 %30.06 in15.0 miSE (130°)11.5 mphOvercast
6:00 AM37.4 °F17.6 °F45 %30.06 in12.0 miSSE (150°)10.4 mphLight Drizzle
6:51 AM35.6 °F21.2 °F56 %30.03 in10.0 miSE (140°)15.0 mphLight Ice Pellets
7:00 AM35.6 °F23.0 °F60 %30.02 in15.0 miSE (140°)13.8 mph20.7 mphRainLight Rain
7:24 AM35.6 °F23.0 °F60 %29.98 in15.0 miSE (130°)12.7 mph19.6 mphRainLight Rain
7:45 AM35.6 °F24.8 °F65 %29.96 in30.0 miSE (130°)15.0 mphOvercast
8:00 AM36.0 °F25.0 °F53 %29.96 in28.0 miSE (130°)16.1 mphLight Ice Pellets
8:00 AM37.4 °F24.8 °F60 %29.96 in30.0 miSE (130°)15.0 mph21.9 mphOvercast
9:00 AM39.2 °F23.0 °F52 %29.92 in30.0 miSSE (150°)16.1 mph23.0 mphOvercast
10:00 AM41.0 °F23.0 °F49 %29.88 in30.0 miSSE (150°)17.3 mphOvercast
11:00 AM42.8 °F24.8 °F49 %29.84 in30.0 miSE (140°)17.3 mphOvercast
1:00 PM51.8 °F28.4 °F41 %29.75 in30.0 miSSE (150°)21.9 mph28.8 mphMostly Cloudy
2:00 PM53.6 °F28.4 °F38 %29.73 in30.0 miSSE (150°)21.9 mphOvercast
2:00 PM53.0 °F29.0 °F27 %29.74 in28.0 miSSE (160°)21.9 mphOvercast
2:03 PM53.6 °F30.2 °F41 %29.74 in30.0 miSSE (160°)21.9 mphRainLight Rain Showers
3:00 PM50.0 °F32.0 °F50 %29.71 in30.0 miSE (140°)16.1 mphOvercast
4:00 PM51.8 °F33.8 °F50 %29.70 in15.0 miSSE (160°)19.6 mphMostly Cloudy
5:00 PM53.6 °F37.4 °F54 %29.68 in15.0 miSouth (170°)16.1 mphOvercast
6:00 PM55.4 °F35.6 °F47 %29.66 in15.0 miSSE (160°)20.7 mph27.6 mphOvercast
6:38 PM53.6 °F35.6 °F51 %29.65 in15.0 miSouth (170°)20.7 mph27.6 mphRainLight Rain Showers
7:00 PM51.8 °F37.4 °F58 %29.66 in15.0 miSouth (170°)16.1 mph23.0 mphRainLight Rain Showers
7:40 PM51.8 °F39.2 °F62 %29.72 in15.0 miWNW (300°)11.5 mph21.9 mphOvercast
7:52 PM50.0 °F39.2 °F66 %29.73 in15.0 miNW (310°)11.5 mphRainLight Rain Showers
8:00 PM49.0 °F41.0 °F65 %29.73 in15.0 miNW (310°)9.2 mphRainLight Rain Showers
8:00 PM48.2 °F41.0 °F76 %29.73 in15.0 miNW (310°)9.2 mphRainLight Rain Showers
8:52 PM48.2 °F41.0 °F76 %29.77 in15.0 miWest (270°)19.6 mph28.8 mphOvercast
9:00 PM48.2 °F39.2 °F71 %29.78 in15.0 miWest (280°)21.9 mph34.5 mphMostly Cloudy
10:00 PM44.6 °F35.6 °F71 %29.81 in15.0 miWest (270°)21.9 mph31.1 mphPartly Cloudy
11:00 PM42.8 °F35.6 °F76 %29.86 in15.0 miWSW (250°)15.0 mph25.3 mphOvercast
Hourly data recorded from CYUL, located miles away from Montreal, Quebec







STORIES FROM OUR PARTNERS